Flight Track Log - Related Links

Times and Time Zones

All times are in EDT time to prevent confusion due to time zone crossing. See the XSR387 flight status page for this flight to view local times or setup timezone preferences in your user account.

Time Position Orientation Groundspeed Altitude Reporting Facility
EDT Latitude Longitude Course Direction KTS MPH feet Rate Location/Type
Sat 05:01:02 PM 37.6508 -95.8122 38° Northeast 128 147 3,500  Level Kansas City Center
Sat 05:02:03 PM 37.6803 -95.7817 39° Northeast 136 157 4,700 1,268 Climbing Kansas City Center
Sat 05:03:05 PM 37.7119 -95.7522 36° Northeast 140 161 6,100 1,403 Climbing Kansas City Center
Sat 05:04:07 PM 37.7436 -95.7239 35° Northeast 139 160 7,600 1,210 Climbing Kansas City Center
Sat 05:05:09 PM 37.7747 -95.6942 37° Northeast 139 160 8,600 1,122 Climbing Kansas City Center
Sat 05:06:00 PM 37.8419 -95.6081 38° Northeast  Level FlightAware Approximate
Sat 05:06:10 PM 37.8181 -95.6536 36° Northeast 157 181 9,900  Level Kansas City Center
Sat 05:07:12 PM 37.8561 -95.6242 31° Northeast 160 184 10,900 537 Climbing Kansas City Center
Sat 05:08:13 PM 37.9028 -95.5908 29° Northeast 186 214 11,000 98 Climbing Kansas City Center
Sat 05:09:15 PM 37.9522 -95.5486 34° Northeast 215 247 11,100 48 Climbing Kansas City Center
Sat 05:10:17 PM 38.0103 -95.5067 30° Northeast 215 247 11,100  Level Kansas City Center
Sat 05:11:18 PM 38.0578 -95.4664 34° Northeast 216 249 11,100 -49 Level Kansas City Center
Sat 05:12:20 PM 38.1047 -95.4292 32° Northeast 209 241 11,000 -48 Descending Kansas City Center
Sat 05:13:22 PM 38.1614 -95.3853 31° Northeast 212 244 11,000 -195 Level Kansas City Center
Sat 05:14:23 PM 38.2089 -95.3453 33° Northeast 213 245 10,600 -878 Descending Kansas City Center
Sat 05:15:25 PM 38.2661 -95.2981 33° Northeast 217 250 9,200 -1,268 Descending Kansas City Center
Sat 05:16:26 PM 38.3150 -95.2589 32° Northeast 218 251 8,000 -1,073 Descending Kansas City Center
Sat 05:17:28 PM 38.3692 -95.2167 31° Northeast 210 242 7,000 -484 Descending Kansas City Center
Sat 05:18:30 PM 38.4156 -95.1817 31° Northeast 203 234 7,000  Level Kansas City Center
Sat 05:19:31 PM 38.4606 -95.1444 33° Northeast 202 232 7,000  Level Kansas City Center
Sat 05:20:33 PM 38.5117 -95.1011 34° Northeast 198 228 7,000  Level Kansas City Center
Sat 05:21:35 PM 38.5567 -95.0633 33° Northeast 201 231 7,000  Level Kansas City Center
Sat 05:22:36 PM 38.6083 -95.0181 34° Northeast 201 231 7,000 -244 Level Kansas City Center
Sat 05:23:38 PM 38.6528 -94.9794 34° Northeast 203 234 6,500 -488 Descending Kansas City Center
Sat 05:24:39 PM 38.7058 -94.9358 33° Northeast 202 232 6,000 -390 Descending Kansas City Center
Sat 05:25:41 PM 38.7517 -94.8989 32° Northeast 202 232 5,700 -484 Descending Kansas City Center
Sat 05:26:43 PM 38.8053 -94.8531 34° Northeast 207 238 5,000 -537 Descending Kansas City Center
Sat 05:27:44 PM 38.8489 -94.8172 33° Northeast 198 228 4,600 -488 Descending Kansas City Center
Sat 05:28:46 PM 38.8942 -94.7806 32° Northeast 201 231 4,000 -293 Descending Kansas City Center
Sat 05:29:47 PM 38.9433 -94.7378 34° Northeast 192 221 4,000 -244 Level Kansas City Center
Sat 05:30:49 PM 38.9847 -94.6950 39° Northeast 199 229 3,500 -390 Descending Kansas City Center
Sat 05:31:50 PM 39.0297 -94.6450 41° Northeast 192 221 3,200 -439 Descending Kansas City Center
Sat 05:32:52 PM 39.0589 -94.6150 39° Northeast 143 165 2,600 -829 Descending Kansas City Center
Sat 05:33:53 PM 39.0925 -94.6017 17° North 109 125 1,500 -683 Descending Kansas City Center
Sat 05:34:55 PM 39.1164 -94.5950 12° North 103 119 1,200 -290 Descending Kansas City Center
Sat 05:36:00 PM 39.1167 -94.5833 38° Northeast  Level FlightAware Approximate

Login

Don't have an account? Register now (free) for customized features, flight alerts, and more!